Résultats de la compétition "Championnat d'Alsace LD" du 30-03-2008 organisée par le club 6804
     
  Télécharger le fichier CSV.  
     
     

 Circuit "Circuit A"

Licence Nom Prénom Temps CN
précédent
Score sur
la course
Différence
1518MULLERMarc1:07:1374696219-1250
1908MEYERCorentin1:13:2859255690-235
1911MEYERKirian1:16:4661215445-676
16292MARQUEFrederic1:17:1451455412+267
12759SCHAMBERGERPierre1:20:5158305170-660
12896BOTOJeremi1:26:3541364828+692
12830REICHYann1:31:5938784544+666
7004PHILIPPERenaud1:36:1444064344-62
2277HELSTROFFERSylvain1:36:5347804314-466
366VESCOVOJ-Albert1:40:0348124178-634
11513HAURYGilles1:40:3052774159-1118
16683NOEGELENFabian1:42:4936184065+447
346LAHAUSSEOlivier1:44:2939704001+31
10998RENAUDBernard1:45:3140653961-104
9031OSTERMANNFrederic1:45:39N/A3956N/A
19024DALIBARDNicolas1:49:54N/A3803N/A
6819HOUDAYERPhilippe1:58:0339213541-380
6901FOUCAULTHerve2:14:30N/A3108N/A
16739DURANDMathieu2:15:2835923086-506
17640COLLETNicolasN/A39700-3970
16293PUMAGregoryN/A33660-3366

  Indice de confiance du circuit (moyenne des différences entre CN et score sur la course des 3 à 10 premiers) : 421




 Circuit "Circuit B"

Licence Nom Prénom Temps CN
précédent
Score sur
la course
Différence
10906COLINFranck0:57:3862155626-589
1335BEAUDEUXPhilippe0:59:1056515480-171
13040VILLARChristophe0:59:3262085446-762
1763PAGEPhilippe1:02:0867025218-1484
343KOEBERLEAlain1:03:5455165074-442
2372DIETSCHBernard1:07:2353374812-525
16234DOLCIMathias1:09:1934014678+1277
2379BILQUEZEric1:12:2448674478-389
1910MEYERJ-Marc1:13:0551634437-726
6904POUPINFrank1:13:47N/A4394N/A
10428PHILIPPEEudes1:14:1843304364+34
5640HUEBERFrancois1:18:0542744152-122
16029TEMPORELLISophie1:18:2044064139-267
312JOLYThierry1:20:1349724042-930
12828REICHAlain1:21:2539933982-11
13016CONTERMagalie1:23:13N/A3896N/A
15852CLEYET-MERLEChristophe1:27:3342433703-540
4586MITTERANDBruno1:27:3540813702-379
1223PICHOLSabrina1:34:06N/A3446N/A
13688FRANCOISAline1:38:3434813290-191
20048HANAUERJean Marie1:39:53N/A3246N/A
1897FRICKBernard1:40:3740043222-782
4073TARDYNatacha1:51:4834372900-537
13693HAURYMarc1:59:1929902717-273
13331SEILLERFabienN/A46840-4684

  Indice de confiance du circuit (moyenne des différences entre CN et score sur la course des 3 à 10 premiers) : 398




 Circuit "Circuit C"

Licence Nom Prénom Temps CN
précédent
Score sur
la course
Différence
7260SUTTEROlivier0:45:4951935577+384
1221PICHOLBernard0:47:39N/A5363N/A
7573OUDINBernard0:54:1545564710+154
2937STRIBEAUMichel0:56:0054334563-870
5639HUEBERDiane1:00:5141844199+15
2370CHARLOTPatrick1:05:4541403886-254
12037KOCH-MATHIANChristophe1:06:3138103842+32
5638TARDYVictor1:06:3845093835-674
13637KORCHAKLena1:06:4938373824-13
10904RAVENELFanny1:08:1245113747-764
13692HAURYEvelyne1:08:4941363713-423
8639BILQUEZHugo1:08:5237193711-8
6753HUEBERNicole1:09:3945663669-897
14223FISCHERGuy1:12:4532813513+232
16130ANCELJulie1:16:3235423339-203
17713KAUFFMANNBaptiste1:17:5425423280+738
17080SCHAMBERGERDaniel1:20:3534843171-313
13478KORCHAKNicole1:21:3137703135-635
19028SCHMIDT-MORGENROTHJacques1:21:5125533122+569
7259SUTTERAriane1:22:5144163084-1332
1909MEYERCorinne1:23:1134733072-401
14216VILLARIsabelle1:23:1638263069-757
11505CORREYves1:23:3937993055-744
18467GOETTMANNPierre-Aimé1:24:0037953042-753
12146WISSONFlorent1:26:1340332964-1069
3904JOUFFROYChristine1:30:5232222812-410
15332MEYERPatricia1:34:2236382708-930
13710WISSONBernard1:37:5333032611-692
7387FOUCAULTMyriam1:40:4626472536-111
5533THIEBAULTJ-Philippe1:41:1236102525-1085
17779BREGEAUDJennifer1:42:2432882495-793
12145WISSONEmilie1:42:3238632492-1371
19680GOETTMANNJean-Pierre1:46:03N/A2410N/A
17082SCHAMBERGERAnneN/A32650-3265
10907COLINCarineN/A15200-1520
15995BOOSAudreyN/AN/A0N/A

  Indice de confiance du circuit (moyenne des différences entre CN et score sur la course des 3 à 10 premiers) : 231




 Circuit "Circuit D"

Licence Nom Prénom Temps CN
précédent
Score sur
la course
Différence
5938EGGLIRoland0:40:3153784206-1172
3108GANZITTIAlexandre0:43:2749483922-1026
2558VOGTClaude0:44:4843283804-524
13875HOTHANHChristine0:45:48N/A3721N/A
9509BASTIENChantal0:46:2632323670+438
18468GOETTMANNThomas0:48:3327353510+775
2263LEMBLEAndre0:48:5938893479-410
17394ASMUSSENPascal0:52:4536213230-391
363THIERRY-FISCHERChri0:53:5036323165-467
2271HOFERERAlbert0:53:5736103159-451
10024RUHLMANNElodie0:56:4025293007+478
326BERBETTGabriel0:58:5928992889-10
12036KOCH-MATHIANFrancine1:00:5127882800+12
10909COLINCamille1:00:5725532796+243
2557VOGTChristiane1:02:2135332733-800
12375ASMUSSENFlorence1:02:3234292725-704
7574OUDINM-Reine1:04:0830022657-345
11748STRIBEAUMelanie1:06:0231562581-575
2552KNOBLOCHFrancis1:06:5027512550-201
310JOLYMauricette1:07:5029262512-414
7900DELCOURTJ-Pierre1:11:1022812394+113
17494ANDRIAMORAZAFIHANTASophie1:13:0827532330-423
1895SALORT - METZSylvie1:16:1828982233-665
2553KNOBLOCHMichele1:16:4224242222-202
12829REICHM-Louise1:17:5818852186+301
1816SANTAMARIACharline1:21:4227682086-682
15295WISSONPetra1:22:3822472062-185
2387SUTTEROdile1:23:4626042034-570
18542RUDKIEWICZMartin1:30:5216001875+275
368VESCOVOOdile1:41:3321061678-428
9018DELCOURTJacqueline1:43:0417071653-54
340FISCHERM-Dominique1:47:1717801588-192

  Indice de confiance du circuit (moyenne des différences entre CN et score sur la course des 3 à 10 premiers) : 227




 Circuit "Circuit E"

Licence Nom Prénom Temps CN
précédent
Score sur
la course
Différence
18304BEAUDEUXThéo0:33:1030783323+245
13638KORCHAKNathalie0:38:2931162864-252
19413HANAUERSébastien0:40:15N/A2738N/A
2547DESAINTJANClaude0:50:1026862197-489
13477DIETSCHJoel0:51:2727122142-570
1883HITZRene0:51:3023842140-244
17495ANDRIAMORAZAFIHANTANirina1:00:0021951837-358
2546DESAINTJANAlice1:06:4721641650-514
18533CAVALIEVincent1:17:28N/A1423N/A
13872JOUFFROYAxel1:37:4722571127-1130
10910COLINLeoN/A21580-2158

  Indice de confiance du circuit (moyenne des différences entre CN et score sur la course des 3 à 10 premiers) : 704




 Circuit "Circuit F"

Licence Nom Prénom Temps CN
précédent
Score sur
la course
Différence
12563CARULaura0:29:3320992763+664
13873JOUFFROYSophia0:31:1716402610+970
17376RUHLMANNTheo0:34:0821682392+224
14215VILLARZoe0:37:2619562181+225
13639KORCHAKEmilie0:40:5526721995-677
19541FUCHSAlexandre0:41:07N/A1985N/A
18699VILLARAlix0:53:0913211536+215
17074FRANCOISLysa0:54:1714681504+36
13237POULAINAntoine1:03:3748331283-3550
12832FOUCAULTJuline1:19:2810161027+11
19025DALIBARDMonika1:20:13N/A1018N/A

  Indice de confiance du circuit (moyenne des différences entre CN et score sur la course des 3 à 10 premiers) : 908






 Retour